Hourly Data Report for August 28, 2004

All times are specified in Local Standard Time (LST). Add 1 hour to adjust for Daylight Saving Time where and when it is observed.

TORONTO CITY
ONTARIO

43°40'00.000" N
79°24'00.000" W
112.50 m
6158355
71508
XTO

Download Data

Hourly Data (August 2004)
Hourly Data Report for August 28, 2004
TIME Temp Definition
°C
Dew Point Definition
°C
Rel Hum Definition
%
Wind Dir Definition
10's deg

Wind Spd Definition
km/h
Visibility Definition
km
Stn Press Definition
kPa
Hmdx Definition


Wind Chill Definition


Weather Definition


00:00 21.8 21.3 97 LegendMM LegendMM LegendMM 99.93 30   LegendNANA
01:00 21.3 20.9 98 LegendMM LegendMM LegendMM 99.89 30   LegendNANA
02:00 21.0 20.6 98 LegendMM LegendMM LegendMM 99.90 29   LegendNANA
03:00 20.9 20.5 98 LegendMM LegendMM LegendMM 99.88 29   LegendNANA
04:00 20.8 20.5 98 LegendMM LegendMM LegendMM 99.90 29   LegendNANA
05:00 20.2 20.0 99 LegendMM LegendMM LegendMM 99.93 28   LegendNANA
06:00
07:00 22.0 21.6 98 LegendMM LegendMM LegendMM 100.03 31   LegendNANA
08:00 23.3 21.0 87 LegendMM LegendMM LegendMM 100.00 32   LegendNANA
09:00
10:00 25.7 19.8 70 LegendMM LegendMM LegendMM 100.01 33   LegendNANA
11:00 26.6 19.5 65 LegendMM LegendMM LegendMM 99.99 34   LegendNANA
12:00 26.4 19.7 67 LegendMM LegendMM LegendMM 99.98 34   LegendNANA
13:00 24.9 19.0 70 LegendMM LegendMM LegendMM 99.87 32   LegendNANA
14:00 24.9 19.6 72 LegendMM LegendMM LegendMM 99.89 32   LegendNANA
15:00 26.0 20.5 72 LegendMM LegendMM LegendMM 99.84 34   LegendNANA
16:00 26.8 19.9 66 LegendMM LegendMM LegendMM 99.81 34   LegendNANA
17:00 25.8 20.8 74 LegendMM LegendMM LegendMM 99.79 34   LegendNANA
18:00 24.5 20.6 79 LegendMM LegendMM LegendMM 99.78 33   LegendNANA
19:00 22.8 21.2 91 LegendMM LegendMM LegendMM 99.81 31   LegendNANA
20:00 21.5 20.0 91 LegendMM LegendMM LegendMM 99.84 29   LegendNANA
21:00 20.1 19.5 96 LegendMM LegendMM LegendMM 99.91 27   LegendNANA
22:00 18.8 17.4 92 LegendMM LegendMM LegendMM 99.90     LegendNANA
23:00 18.9 17.9 94 LegendMM LegendMM LegendMM 99.86     LegendNANA

Notes on Data Quality.

Legend

  • E = Estimated
  • M = Missing
  • NA = Not Available
Date modified: